[[{"header":{"parameterUnit":"m.s-1","parameterCategory":1,"la1":30.2991,"la2":30.254,"lo1":-89.0895,"lo2":-89.0444,"dy":0.0017,"dx":0.0017,"nx":28,"ny":28,"refTime":"2024-09-01T21:00:00:Z","depth":0,"parameterNumber":2,"parameterNumberName":"U-component_of_WINDS"},"data":[0,0,0,0,0,0,0,0,0,0,0,0,0,0,0,0,0,0,0,0,0,0,0,0,0,0,0,0,0,0,0,0,0,0,0,0,0,0,0,0,0,0,0,0,0,0,0,0,0,0,0,0,0,0,0,0,0,0,-2.0335,-2.0334,0,-2.0201,-2.02,-2.0198,-2.0103,-2.0102,-2.0101,-2.0101,-1.9963,-1.996,-1.9957,0,0,0,0,0,0,0,0,0,0,0,0,0,-2.051,-2.0508,-2.0335,-2.0334,-2.0332,-2.0202,-2.02,-2.0198,-2.0103,-2.0102,-2.0101,-2.01,-1.9964,-1.996,-1.9957,0,0,0,0,0,0,0,0,0,0,0,0,0,-2.0411,-2.0507,-2.0336,-2.0269,-2.0262,-2.0202,-2.02,-2.0197,-2.0103,-2.0102,-2.0101,-2.01,-1.9965,-1.996,-1.9956,-1.9952,0,0,-1.9943,-1.9941,0,0,0,0,0,0,0,0,-2.0417,-2.0405,-2.028,-2.0273,-2.0265,-2.0168,-2.0211,-2.0115,-2.0103,-2.0163,-2.0101,-2.0099,-2.0032,-2.0022,-1.9999,-1.9945,-1.9939,-1.9942,-1.9939,-1.9938,-1.9936,0,0,0,0,0,0,0,-2.0424,-2.041,-2.0282,-2.0279,-2.0269,-2.0246,-2.0231,-2.0192,-2.0106,-2.0158,-2.0151,-2.0136,-2.0027,-2.0004,-1.9995,-1.9937,-1.9942,-1.9938,-1.9936,-1.9934,-1.9876,-1.9877,0,0,0,0,0,0,-2.0441,-2.0417,-2.0286,-2.0278,-2.034,-2.0244,-2.0227,-2.02,-2.0106,-2.009,-2.0137,-2.0132,-2.0012,-2.0,-1.999,-1.998,-1.9938,-1.9933,-1.9931,-1.9875,-1.9876,-1.9878,0,0,0,0,0,0,-2.0445,-2.0431,-2.0292,-2.0345,-2.0326,-2.0242,-2.0213,-2.0198,-2.0174,-2.009,-2.0074,-2.0129,-2.001,-1.9996,-1.9963,-1.9974,-1.9931,-1.9927,-1.9874,-1.9876,-1.9877,-1.9959,0,0,0,0,0,0,-2.0451,-2.0433,-2.0429,-2.0346,-2.0324,-2.0266,-2.0214,-2.0196,-2.0167,-2.0159,-2.0078,-2.0063,-2.0008,-1.997,-1.9958,-1.9967,-1.9924,-1.9872,-1.9875,-1.9877,-1.9955,-1.9963,-1.997,0,0,0,0,0,-2.0457,-2.0457,-2.043,-2.0415,-2.0318,-2.0267,-2.0254,-2.0191,-2.0168,-2.0165,-2.0111,-2.0066,-1.9975,-1.9967,-1.9953,-1.9961,-1.9871,-1.9874,-1.9876,-1.9951,-1.9962,-1.997,0,0,0,0,0,0,-2.0542,-2.0445,-2.0413,-2.0386,-2.0336,-2.0251,-2.0244,-2.0204,-2.0158,-2.0153,-2.0076,-2.0059,-2.0034,-1.9994,-1.9987,-1.9953,-1.9918,-1.9918,-1.9979,-1.9988,-1.9996,-2.0006,-1.992,0,0,0,0,0,-2.0559,-2.0525,-2.0442,-2.0426,-2.0403,-2.0329,-2.0304,-2.026,-2.0205,-2.0183,-2.0127,-2.0075,-2.0035,-2.001,-1.9968,-1.995,-1.9931,-1.9948,-1.9956,-1.9963,-1.9963,-1.9953,-1.9959,-1.9886,-1.9886,-1.9886,0,0,-2.059,-2.0533,-2.0516,-2.0442,-2.0397,-2.0366,-2.0311,-2.0279,-2.0255,-2.0178,-2.0143,-2.0101,-2.0038,-2.0013,-1.9999,-1.9979,-1.998,-1.9966,-1.9972,-1.9968,-1.9956,-1.9963,-1.9969,-1.9888,-1.9887,-1.9887,0,0,-2.0631,-2.0585,-2.0567,-2.0525,-2.046,-2.0411,-2.0407,-2.0329,-2.0299,-2.0263,-2.0205,-2.0176,-2.0108,-2.0066,-2.0036,-2.0067,-2.0024,-2.0056,-2.0096,-2.0086,-2.0092,-2.0097,-2.0108,-2.0113,-2.0057,-2.0057,-2.0057,0,-2.0679,-2.0628,-2.0563,-2.0535,-2.0505,-2.0436,-2.0418,-2.038,-2.0305,-2.0286,-2.0265,-2.018,-2.0133,-2.0097,-2.0106,-2.0083,-2.0077,-2.0063,-2.0096,-2.0101,-2.0104,-2.0114,-2.0119,-2.0061,-2.0061,-2.006,-2.006,0,-2.069,-2.0657,-2.065,-2.058,-2.055,-2.0527,-2.0459,-2.0436,-2.0396,-2.0351,-2.0317,-2.0258,-2.0204,-2.0193,-2.0153,-2.0153,-2.0143,-2.0111,-2.0073,-2.0116,-2.0125,-2.0128,-2.0067,-2.0066,-2.0065,-2.0063,0,0,-2.0777,-2.0675,-2.0674,-2.0642,-2.0567,-2.054,-2.0516,-2.0464,-2.0446,-2.0398,-2.0376,-2.0322,-2.0292,-2.0259,-2.0214,-2.0206,-2.0236,-2.0174,-2.0172,-2.0188,-2.0233,-2.0258,-2.0263,-2.0208,-2.0208,-2.0209,-2.0239,0,-2.0807,-2.0759,-2.0701,-2.0673,-2.0642,-2.0579,-2.0558,-2.051,-2.0468,-2.0436,-2.0389,-2.0352,-2.0316,-2.0295,-2.0285,-2.0234,-2.0244,-2.0231,-2.0187,-2.0186,-2.0203,-2.0267,-2.0292,-2.0323,-2.0242,-2.0242,-2.0242,0,-2.0833,-2.079,-2.076,-2.069,-2.0675,-2.0657,-2.0606,-2.0577,-2.0523,-2.0493,-2.0457,-2.041,-2.0383,-2.0351,-2.0313,-2.0306,-2.0285,-2.0258,-2.0258,-2.025,-2.0216,-2.0261,-2.0331,-2.0336,-2.0247,-2.0246,-2.0246,0,-2.0901,-2.0835,-2.0808,-2.0783,-2.0701,-2.0691,-2.0656,-2.0601,-2.0575,-2.0531,-2.0514,-2.0468,-2.0442,-2.0408,-2.0351,-2.0333,-2.0319,-2.0282,-2.0294,-2.0295,-2.0292,-2.0293,-2.0359,-2.028,-2.028,-2.028,-2.028,0,-2.0939,-2.0922,-2.0837,-2.0821,-2.0802,-2.0737,-2.072,-2.068,-2.0633,-2.0608,-2.0551,-2.0529,-2.0455,-2.0425,-2.038,-2.0356,-2.0345,-2.032,-2.0308,-2.0325,-2.0328,-2.0309,-2.0305,-2.0281,-2.0281,-2.0281,-2.0281,0,-2.1009,-2.0951,-2.0918,-2.0845,-2.0827,-2.0816,-2.0753,-2.0736,-2.0692,-2.0662,-2.0651,-2.0582,-2.0544,-2.0484,-2.0428,-2.0399,-2.0382,-2.0363,-2.0401,-2.0393,-2.0408,-2.0407,-2.0464,-2.0468,-2.0388,-2.0389,-2.0389,0,-2.1036,-2.1023,-2.0949,-2.0929,-2.0897,-2.0865,-2.0839,-2.0776,-2.0751,-2.0691,-2.0681,-2.0639,-2.0602,-2.0545,-2.049,-2.0448,-2.0427,-2.045,-2.042,-2.0438,-2.0427,-2.0428,-2.0427,-2.0456,-2.0457,-2.0458,-2.0459,0,-2.1091,-2.1064,-2.1028,-2.0984,-2.0955,-2.0917,-2.0875,-2.0863,-2.0791,-2.0766,-2.0728,-2.0699,-2.0644,-2.0604,-2.0555,-2.0519,-2.0478,-2.0469,-2.047,-2.0485,-2.0508,-2.0496,-2.0419,-2.0468,-2.0467,-2.0466,-2.0466,-2.0465,-2.114,-2.1126,-2.1073,-2.1036,-2.0999,-2.0963,-2.0944,-2.0899,-2.0865,-2.0816,-2.0781,-2.0745,-2.0695,-2.0625,-2.0593,-2.0564,-2.0545,-2.0546,-2.0546,-2.0547,-2.0553,-2.0514,-2.0555,-2.0555,-2.0554,-2.0554,-2.0554,0,-2.1192,-2.1155,-2.1122,-2.1068,-2.104,-2.1005,-2.0959,-2.0937,-2.0906,-2.0863,-2.0829,-2.0786,-2.0747,-2.0691,-2.0649,-2.0637,-2.0617,-2.0628,-2.0628,-2.0621,-2.0572,-2.0576,-2.0645,-2.0645,-2.0645,-2.0645,-2.0645,-2.0645,-2.1215,-2.119,-2.1158,-2.1115,-2.1078,-2.1043,-2.102,-2.0987,-2.0952,-2.0907,-2.0875,-2.084,-2.0792,-2.0746,-2.071,-2.0694,-2.0681,-2.0698,-2.0677,-2.0632,-2.0624,-2.0616,-2.0619,-2.0696,-2.0696,-2.0728,-2.0728,-2.0728]},{"header":{"parameterUnit":"m.s-1","parameterCategory":1,"la1":30.2991,"la2":30.254,"lo1":-89.0895,"lo2":-89.0444,"dy":0.0017,"dx":0.0017,"nx":28,"ny":28,"refTime":"2024-09-01T21:00:00:Z","depth":0,"parameterNumber":3,"parameterNumberName":"V-component_of_WINDS"},"data":[0,0,0,0,0,0,0,0,0,0,0,0,0,0,0,0,0,0,0,0,0,0,0,0,0,0,0,0,0,0,0,0,0,0,0,0,0,0,0,0,0,0,0,0,0,0,0,0,0,0,0,0,0,0,0,0,0,0,3.5142,3.5143,0,3.5231,3.5233,3.5234,3.528,3.528,3.528,3.528,3.5372,3.5374,3.5377,0,0,0,0,0,0,0,0,0,0,0,0,0,3.5013,3.5015,3.5142,3.5143,3.5144,3.5231,3.5233,3.5234,3.528,3.528,3.528,3.528,3.5371,3.5374,3.5377,0,0,0,0,0,0,0,0,0,0,0,0,0,3.5082,3.5016,3.5142,3.5178,3.5182,3.5231,3.5233,3.5234,3.528,3.528,3.528,3.528,3.537,3.5374,3.5377,3.5398,0,0,3.5388,3.539,0,0,0,0,0,0,0,0,3.5078,3.5087,3.5171,3.5175,3.518,3.5244,3.5221,3.5289,3.528,3.5242,3.528,3.528,3.5329,3.5336,3.5353,3.5402,3.5406,3.5389,3.5391,3.5392,3.5393,0,0,0,0,0,0,0,3.5074,3.5083,3.5177,3.5172,3.5178,3.519,3.52,3.5234,3.5284,3.5246,3.5249,3.5259,3.5332,3.5349,3.5356,3.5408,3.5388,3.5392,3.5394,3.5395,3.548,3.548,0,0,0,0,0,0,3.5063,3.5079,3.5175,3.518,3.5128,3.5192,3.5203,3.5224,3.5284,3.5293,3.5259,3.5261,3.5343,3.5351,3.5359,3.5388,3.5392,3.5396,3.5398,3.548,3.548,3.548,0,0,0,0,0,0,3.506,3.5071,3.5171,3.5131,3.5144,3.5194,3.5217,3.5225,3.5243,3.5294,3.5304,3.5268,3.5344,3.5354,3.5388,3.5392,3.5397,3.5401,3.548,3.548,3.548,3.5446,0,0,0,0,0,0,3.5056,3.5069,3.5077,3.5131,3.5146,3.5198,3.5217,3.5227,3.5249,3.5252,3.5305,3.5314,3.5344,3.5383,3.5392,3.5397,3.5403,3.548,3.548,3.548,3.5447,3.5445,3.5443,0,0,0,0,0,3.5051,3.5064,3.5077,3.5089,3.5157,3.5198,3.5207,3.5242,3.5249,3.5258,3.5291,3.5312,3.539,3.5386,3.5396,3.5403,3.548,3.548,3.548,3.5448,3.5445,3.5443,0,0,0,0,0,0,3.5009,3.5071,3.5087,3.5117,3.5152,3.5206,3.5218,3.5238,3.5272,3.5274,3.5317,3.5328,3.5359,3.5384,3.5378,3.5427,3.5437,3.544,3.5409,3.5407,3.5405,3.5398,3.5406,0,0,0,0,0,3.5004,3.5031,3.5084,3.5106,3.5123,3.5167,3.5186,3.5211,3.5248,3.5263,3.5299,3.5335,3.5369,3.5389,3.5422,3.5451,3.5464,3.5461,3.5459,3.5457,3.5459,3.5478,3.5477,3.5481,3.5481,3.5481,0,0,3.4992,3.5029,3.5044,3.5099,3.5128,3.5157,3.5179,3.5208,3.523,3.5268,3.5303,3.533,3.5374,3.5406,3.5422,3.5428,3.5461,3.5458,3.5456,3.5458,3.5478,3.5477,3.5477,3.5481,3.5481,3.5481,0,0,3.4986,3.5016,3.5038,3.5068,3.5113,3.5143,3.5148,3.52,3.5219,3.5255,3.5285,3.5312,3.5367,3.5397,3.542,3.5427,3.5448,3.5437,3.5427,3.5444,3.5444,3.5444,3.5447,3.5448,3.5438,3.5438,3.5438,0,3.4966,3.5009,3.5047,3.5075,3.5098,3.5134,3.5158,3.5185,3.5238,3.5254,3.5261,3.5332,3.5364,3.5404,3.5406,3.5423,3.5431,3.5431,3.5441,3.5441,3.5442,3.5445,3.5447,3.5437,3.5437,3.5437,3.5437,0,3.4983,3.5013,3.5025,3.5076,3.5102,3.5127,3.5169,3.519,3.5213,3.5242,3.5279,3.5318,3.5361,3.5372,3.5394,3.5416,3.5419,3.5433,3.5444,3.5439,3.5443,3.5445,3.5434,3.5435,3.5435,3.5436,0,0,3.4951,3.5024,3.5028,3.5052,3.5106,3.513,3.5158,3.5199,3.5217,3.5253,3.5278,3.5325,3.5339,3.5364,3.539,3.5406,3.541,3.5418,3.542,3.5416,3.5438,3.5427,3.5428,3.5425,3.5425,3.5426,3.5435,0,3.4952,3.5003,3.5039,3.5076,3.5105,3.5141,3.5165,3.5201,3.5229,3.5259,3.5291,3.5324,3.5339,3.5355,3.5372,3.5406,3.5415,3.5406,3.5449,3.545,3.5437,3.543,3.5419,3.5426,3.5437,3.5437,3.5437,0,3.496,3.4996,3.5036,3.5087,3.5101,3.5122,3.5164,3.5191,3.5233,3.5253,3.5283,3.531,3.5342,3.535,3.5396,3.5388,3.5408,3.5428,3.5429,3.5434,3.5443,3.5436,3.5428,3.5429,3.544,3.544,3.5439,0,3.4934,3.4992,3.5023,3.5043,3.5104,3.5118,3.5144,3.5187,3.521,3.5247,3.5263,3.5303,3.5325,3.5356,3.5394,3.5396,3.5435,3.5447,3.5453,3.5452,3.5459,3.5458,3.5455,3.5472,3.5472,3.5472,3.5472,0,3.4931,3.4954,3.5012,3.5032,3.5059,3.5101,3.5127,3.5157,3.5194,3.5221,3.5255,3.5279,3.5327,3.5358,3.5388,3.5421,3.5431,3.5449,3.5456,3.5446,3.5443,3.5459,3.5459,3.5472,3.5472,3.5472,3.5472,0,3.4905,3.4945,3.4982,3.5038,3.5052,3.507,3.5118,3.5139,3.517,3.5203,3.5214,3.5263,3.5301,3.5342,3.5393,3.5414,3.5446,3.5457,3.5431,3.5436,3.544,3.5439,3.5447,3.5451,3.5464,3.5464,3.5464,0,3.4901,3.492,3.4978,3.4998,3.5023,3.5055,3.508,3.5122,3.5146,3.5196,3.5211,3.5252,3.5287,3.5346,3.5387,3.5427,3.5439,3.5439,3.5445,3.5434,3.544,3.5438,3.5441,3.5437,3.5436,3.5436,3.5436,0,3.4889,3.4909,3.4942,3.4983,3.5011,3.5045,3.5081,3.5096,3.5145,3.5171,3.521,3.5237,3.5291,3.5331,3.5376,3.5404,3.5429,3.5434,3.5438,3.5427,3.5412,3.542,3.5426,3.5433,3.5434,3.5434,3.5434,3.5434,3.4875,3.4894,3.4937,3.4974,3.5006,3.5038,3.5061,3.5096,3.5129,3.5176,3.5199,3.5239,3.5282,3.5346,3.5374,3.5406,3.5413,3.5418,3.542,3.542,3.5418,3.5407,3.5414,3.5414,3.5415,3.5415,3.5415,0,3.4865,3.4895,3.4929,3.4978,3.5007,3.5028,3.5069,3.5092,3.5126,3.5165,3.5199,3.5245,3.5285,3.5329,3.5372,3.5389,3.5402,3.5399,3.5398,3.5405,3.5409,3.5401,3.5388,3.5388,3.5388,3.5388,3.5388,3.5388,3.4863,3.4897,3.4921,3.4971,3.5002,3.5041,3.5063,3.5094,3.5125,3.5175,3.5208,3.5237,3.5279,3.5325,3.5363,3.5375,3.5389,3.5384,3.5399,3.5402,3.5404,3.5406,3.5399,3.5386,3.5386,3.5393,3.5393,3.5393]}]]